Погода в Саскылахе

Погода в Саскылахе : погода сейчас, прогноз погоды и архив. Всё, что Вы хотите узнать о погоде в Саскылахе!

Хотите узнать прогноз погоды в Саскылахе? Тогда Вам сюда: Погода в Саскылахе

Поиск расширенной информации на нашем сайте:

Другие новости

Новости СМИ2

Главная страница сайта

Новости сайта

03.07.2017

Напоминаем, что на нашем специализированном сайте Метеоцентр.Азия вы можете получить высокодетализированные автоматические прогнозы погоды по пунктам России, СНГ и мира в авиационном формате (включающие направление и скорость ветра, видимость, явления погоды, количество и форму облачности, нижнюю и верхнюю границу облачности).

Рекомендуем: разместить услугу

Погода в Саскылахе - сегодня

Время (UTC), дата Ветер
(°,м/с) 
Видим.   Явления Облачность Т
(°С)
Тd
(°С)
f(%) Тe
(°С)
Pmin
(гПа)
dP
(гПа)
Po
(мм)
O2
(г/м3)
Тmin Tmax R s Состояние
почвы
09 18.09.17 300 (СЗ) 20000 м  {снег}  6/6 700 м 
[Sc]
-0.1 -2.2 86 -1  1019.3  763  308           
12 18.09.17 тихо ()   20000 м  {снег}  ясно 
-2.3 -2.9 96 -2  1019.7  0.3  763  310    -0.1  0.6     
15 18.09.17 тихо ()   20000 м    ясно 
-4.3 -4.5 99 -4  1019.7  763  313           
18 18.09.17 тихо ()   20000 м    ясно 
-4.4 -4.6 99 -4  1019.6  -0.1  763  313           
21 18.09.17 тихо ()   0500 м  туман  ?/?  
-6 -6 100 -6  1019.3  -0.3  763  315           
00 19.09.17 тихо ()   0500 м  туман на расстоянии{морось}  ?/?  
-6.3 -6.7 97 -6  1018.9  -0.4  762  315  -6.4        замёрзшая 
06 19.09.17 320 (СЗ) 20000 м  {туман}  3/3 300 м 
[Sc]
-0.8 -1.8 93 -2  1017.4  -0.9  761  308           
09 19.09.17 320 (СЗ) 20000 м    6/6 450 м 
[Sc]
-1 -2.4 90 -3  1017  -0.4  761  308           
12 19.09.17 300 (СЗ) 20000 м    ясно 
-2.8 -3.4 96 -4  1016.4  -0.7  761  310    -0.8       
15 19.09.17 280 (З) 20000 м    ясно 
-3.3 -4 95 -6  1015.1  -1.3  760  310           
18 19.09.17 300 (СЗ) 20  20000 м    3/0 
-2.4 -3.3 94 -10  1012.9  -2.2  758  308           
21 19.09.17 260 (З) 20000 м    8/0 средняя 
[Ac As]
-1.5 -3.7 85 -3  1010.3  -2.5  756  307           
00 20.09.17 250 (З) 20000 м    8/0 средняя 
[Ac As]
-0.4 -4.1 76 -4  1008  -2.3  754  305  -3.4        замёрзшая 
03 20.09.17 240 (ЮЗ) 20000 м    8/0 средняя 
[Ac As]
+1.3 -2.5 76 -2  1005.8  -2.2  753  302           
06 20.09.17 250 (З) 6-10{12}  20000 м    10/0 средняя 
[Ac und]
+2.7 -2.2 70 1003.4  -2.4  751  300           
12 20.09.17 260 (З) 20000 м  {дождь}  10/10 450 м 
[Sc]
+0.6 -0.2 94 -3  1002.5  -0.5  750  302    +2.7  0.4     
15 20.09.17 260 (З) 4000 м  слаб. снег  10/10 420 м 
[Ns]
+0.5 -0.8 91 -3  1002.1  -0.4  750  302           
18 20.09.17 280 (З) 4{12}  н/о    н/о 
-0.7 -2.7 86 -3  1003.2  1.3  751  304           
21 20.09.17 270 (З) 20000 м  {снег}  10/10 450 м 
[Sc]
-1.9 -3.7 87 -5  1004.4  0.9  752  305           
00 21.09.17 280 (З) 20000 м  {снег}  10/10 660 м 
[Sc]
-1.9 -4.7 81 -5  1006  1.6  753  306  -2    0.1    замёрзшая 
03 21.09.17 300 (СЗ) 20000 м    10/10 900 м 
[Sc]
-2.2 -4.7 83 -4  1007.4  1.4  754  307           
06 21.09.17 290 (З) 20000 м    10/10 900 м 
[Sc]
-1.7 -7 67 -4  1008.5  1.1  755  307           
09 21.09.17 250 (З) 20000 м    10/10 900 м 
[Sc]
-1.9 -4.3 84 -4  1009.5  755  307           
12 21.09.17 240 (ЮЗ) 20000 м    8/8 900 м 
[Sc]
-3.5 -5.3 87 -6  1011.1  1.5  757  309    -1.7       
15 21.09.17 270 (З) н/о    н/о 
-4.1 -6.9 81 -6  1011.8  0.8  757  311           
Время (UTC), дата Ветер
(°,м/с) 
Видим.   Явления Облачность Т
(°С)
Тd
(°С)
f(%) Тe
(°С)
Pmin
(гПа)
dP
(гПа)
Po
(мм)
O2
(г/м3)
Тmin Tmax R s Состояние
почвы

Для получения пояснительной информации подведите курсор к названию столбца.

ПОГОДА в Саскылахе - архив

Всё, что Вы хотите узнать о погоде в Саскылахе - удобно и подробно!

Выберите нужную дату (начиная с 1 января 2015* года) и нажмите кнопку "Найти".
Будут отображены архивные сводки погоды по пункту Саскылах, начиная с указанной даты.


Отображать данные в формате CSV (для использования в таблицах Excel)


Внимание! Наш архив погоды предназначен исключительно для личного некоммерческого использования в познавательных целях. Если Вам необходимы официальные справки о состоянии погоды (для производственных, юридических, коммерческих и т.п. целей), обращайтесь в органы Росгидромета.

*Примечание: данная дата относится к архиву по метеостанциям СССР (Россия, СНГ, Балтия).
Архив по метеостанциям Зарубежной Европы и Азии (кроме Китая) хранится 10 дней, по другим регионам земного шара (Китай, Африка, Америка, Австралия, Океания) - 1 день.

Саскылах - район местоположения метеостанции


Название, широта, долгота, высота метеостанции:
Саскылах 72°ш. 114.1°д. 18 м над ур. моря [Российская Федерация]

Дополнительная информация

В oтличие oт бoльшинства пoгoдных сайтoв мы публикуем пoдрoбную метеoинфoрмацию в детальнoм прoфессиoнальнoм фoрмате.

Характеристики температуры и влажнoсти вoздуха измеряются на высoте 2 м в тени вдали oт зданий и деревьев.
Скoрoсть ветра измеряется на высoте 10 м (на урoвне рoста челoвека скoрoсть ветра ниже в 1.5-2 раза). Если метеoстанция нахoдится в гoрoде или в лесу, тo скoрoсть ветра занижена на 2-4 м/с пo сравнению с oткрытым местoм. Скoрoсть ветра над акватoриями крупных рек и oзёр, а также на вершинах хoлмoв на 2-5 м/с выше, чем в oбычных услoвиях.
Атмoсфернoе давление в разных тoчках местнoсти мoжет значительнo oтличаться oт давления на метеoстанции, в зависимoсти oт услoвий рельефа (при пoдъёме на 10 м давление пoнижается примернo на 1 мм рт.ст.).